Weather History for KBML - December, 2004

Change the Weather History Date:

Sunday, December 5, 2004

  Actual Average Record
Temperature  
Mean Temperature 22 °F -  
Max Temperature 36 °F 32 °F 53 °F (2011)
Min Temperature 8 °F 15 °F -6 °F (2014)
Degree Days  
Heating Degree Days 43    
Moisture  
Dew Point 18 °F    
Average Humidity 69    
Maximum Humidity 100    
Minimum Humidity 24    
Precipitation  
Precipitation 0.03 in - - ()
Sea Level Pressure  
Sea Level Pressure 29.93 in    
Wind  
Wind Speed 8 mph (WNW)    
Max Wind Speed 16 mph    
Max Gust Speed 29 mph    
Visibility 7 miles    
Events Snow    
Averages and records for this station are not official NWS values.
T = Trace of Precipitation, MM = Missing Value Source: NWS Daily Summary

Daily Weather History Graph

Daily Weather History Graph

Search for Another Location

Airport or City:

Trip Planner

Search our weather history database for the weather conditions in past years. The results will help you decide how hot, cold, wet, or windy it might be!

Date:

Astronomy

Dec. 05, 2004 Rise Set
Actual Time 7:06 AM EST 4:04 PM EST
Civil Twilight 6:32 AM EST 4:37 PM EST
Nautical Twilight 5:56 AM EST 5:14 PM EST
Astronomical Twilight 5:21 AM EST 5:49 PM EST
Moon No Moon Rise 12:44 PM EST (12/5)
Length of Visible Light 10h 04m
Length of Day
8h 58m
Last Quarter, 43% of the Moon is Illuminated
Dec 5
Last Quarter
Dec 11
New
Dec 18
First Quarter
Dec 26
Full
Jan 3
Last Quarter

Hourly Weather History & Observations

Time (EST) Temp. Windchill Dew Point Humidity Pressure Visibility Wind Dir Wind Speed Gust Speed Precip Events Conditions
12:52 AM 33.1 °F 25.5 °F 27.0 °F 78% 29.73 in 6.0 mi SW 9.2 mph 16.1 mph 0.00 in Snow Light Snow
1:17 AM 33.8 °F 27.7 °F 24.8 °F 70% 29.69 in 10.0 mi Variable 6.9 mph - 0.00 in   Overcast
1:52 AM 34.0 °F 29.8 °F 26.1 °F 73% 29.73 in 10.0 mi Variable 4.6 mph - 0.00 in   Overcast
2:52 AM 33.1 °F 30.0 °F 27.0 °F 78% 29.74 in 10.0 mi Variable 3.5 mph - 0.00 in   Overcast
3:52 AM 35.1 °F 26.9 °F 27.0 °F 72% 29.74 in 10.0 mi SSW 11.5 mph 17.3 mph N/A   Overcast
4:52 AM 30.9 °F - 30.0 °F 96% 29.76 in 2.5 mi Calm Calm - 0.01 in Snow Light Snow
5:00 AM 30.2 °F - 30.2 °F 100% 29.71 in 5.0 mi Calm Calm - 0.00 in Snow Light Snow
5:28 AM 32.0 °F - 30.2 °F 93% 29.72 in 8.0 mi Calm Calm - 0.00 in   Overcast
5:43 AM 30.2 °F - 28.4 °F 93% 29.73 in 7.0 mi Calm Calm - 0.00 in   Overcast
5:52 AM 32.0 °F - 30.0 °F 92% 29.77 in 6.0 mi Calm Calm - 0.00 in Snow Light Snow
6:52 AM 36.0 °F 30.3 °F 28.0 °F 73% 29.80 in 10.0 mi Variable 6.9 mph - 0.00 in   Overcast
7:52 AM 36.0 °F 32.1 °F 30.0 °F 79% 29.81 in 8.0 mi NW 4.6 mph - N/A   Overcast
7:58 AM 35.6 °F 29.2 °F 30.2 °F 81% 29.78 in 1.8 mi WNW 8.1 mph - 0.00 in Snow Light Snow
8:01 AM 35.6 °F 29.9 °F 30.2 °F 81% 29.78 in 1.0 mi WNW 6.9 mph - 0.00 in Snow Light Snow
8:04 AM 33.8 °F 28.6 °F 30.2 °F 87% 29.78 in 0.8 mi NW 5.8 mph - 0.01 in Snow Light Snow
8:17 AM 33.8 °F 27.0 °F 32.0 °F 93% 29.79 in 1.2 mi West 8.1 mph 17.3 mph 0.02 in Snow Light Snow
8:19 AM 33.8 °F 24.8 °F 30.2 °F 87% 29.79 in 2.0 mi WNW 12.7 mph 17.3 mph 0.02 in Snow Light Snow
8:21 AM 33.8 °F 25.8 °F 30.2 °F 87% 29.79 in 4.0 mi WNW 10.4 mph 17.3 mph 0.02 in Snow Light Snow
8:52 AM 34.0 °F 26.6 °F 30.0 °F 85% 29.86 in 2.0 mi West 9.2 mph 17.3 mph 0.02 in Snow Light Snow
9:08 AM 33.8 °F 26.4 °F 30.2 °F 87% 29.82 in 2.0 mi West 9.2 mph 16.1 mph 0.00 in Snow Light Snow
9:17 AM 33.8 °F 27.0 °F 28.4 °F 81% 29.83 in 4.0 mi WNW 8.1 mph - 0.00 in Snow Light Snow
9:26 AM 33.8 °F 23.9 °F 28.4 °F 81% 29.84 in 3.0 mi NW 15.0 mph 21.9 mph 0.00 in Snow Light Snow
9:40 AM 32.0 °F 23.0 °F 26.6 °F 80% 29.86 in 1.8 mi NW 11.5 mph - 0.00 in Snow Light Snow
9:52 AM 32.0 °F 21.2 °F 25.0 °F 75% 29.92 in 1.8 mi NW 16.1 mph 27.6 mph 0.00 in Snow Light Snow
9:57 AM 32.0 °F 21.6 °F 24.8 °F 75% 29.87 in 2.5 mi NW 15.0 mph 27.6 mph 0.00 in Snow Light Snow
10:02 AM 30.2 °F 19.3 °F 19.4 °F 64% 29.88 in 4.0 mi WNW 15.0 mph 26.5 mph 0.00 in Snow Light Snow
10:15 AM 30.2 °F 19.8 °F 15.8 °F 55% 29.89 in 9.0 mi WNW 13.8 mph 21.9 mph 0.00 in   Overcast
10:52 AM 28.9 °F 17.7 °F 12.0 °F 49% 29.95 in 10.0 mi West 15.0 mph 23.0 mph 0.00 in   Overcast
11:52 AM 28.9 °F 18.6 °F 10.9 °F 47% 29.98 in 10.0 mi West 12.7 mph 21.9 mph N/A   Clear
12:52 PM 27.0 °F 16.7 °F -2.9 °F 27% 30.02 in 10.0 mi WNW 11.5 mph 28.8 mph N/A   Clear
1:52 PM 24.1 °F 13.1 °F -8.0 °F 24% 30.06 in 10.0 mi NW 11.5 mph 19.6 mph N/A   Clear
2:52 PM 21.9 °F 8.7 °F -9.9 °F 24% 30.12 in 10.0 mi WNW 15.0 mph 27.6 mph N/A   Clear
3:52 PM 19.0 °F 6.1 °F -5.1 °F 34% 30.17 in 10.0 mi WNW 12.7 mph 20.7 mph N/A   Clear
4:52 PM 18.0 °F 8.7 °F -2.0 °F 41% 30.22 in 10.0 mi NNW 6.9 mph - N/A   Clear
5:52 PM 15.1 °F 4.2 °F -0.0 °F 51% 30.26 in 10.0 mi WNW 8.1 mph - N/A   Clear
6:52 PM 14.0 °F 1.2 °F -0.0 °F 54% 30.27 in 10.0 mi WNW 10.4 mph 17.3 mph N/A   Clear
7:52 PM 12.9 °F 5.2 °F -2.0 °F 51% 30.29 in 10.0 mi Variable 4.6 mph - N/A   Clear
8:52 PM 12.0 °F 2.7 °F -0.9 °F 56% 30.32 in 10.0 mi Variable 5.8 mph - N/A   Clear
9:52 PM 8.1 °F - -0.9 °F 67% 30.35 in 10.0 mi Calm Calm - N/A   Clear
10:52 PM 10.0 °F 1.8 °F -0.9 °F 61% 30.35 in 10.0 mi West 4.6 mph - N/A   Clear
11:52 PM 9.0 °F -3.2 °F -0.9 °F 64% 30.37 in 10.0 mi West 8.1 mph - N/A   Clear